Flag for Germany Weather past 2 weeks in St. Wendel, Saarland, Germany

Now
63 °F

Thunderstorms. Partly cloudy.


Feels Like: 63 °F
Forecast: 57 / 74 °F
Wind: 5 mph from Northeast

Location: Saarbruecken / Ensheim

Current Time: Sep 18, 2014 at 4:07:35 AM

Latest Report: Sep 18, 2014 at 3:20 AM


Visibility: N/A

Pressure: 29.86 "Hg

Humidity: 88%

Dew point: 59 °F

Location of St. WendelLocation

Historic Weather in St. Wendel — Graph

°F

St. Wendel temperature yesterday

Maximum temperature yesterday: 77 °F (at 3:20 PM)
Minimum temperature yesterday: 55 °F (at 7:20 AM)
Average temperature yesterday: 66 °F

Past Weeks' High & Low Weather Summary

 TemperatureHumidityPressure
High77 °F (Sep 5, 5:20 PM)100% (Sep 5, 2:50 AM)30.18 "Hg (Sep 5, 2:50 AM)
Low46 °F (Sep 12, 5:20 AM)47% (Sep 7, 4:50 PM)29.86 "Hg (Sep 17, 3:20 PM)
Average61 °F78%30.03 "Hg
* Reported Sep 3 2:20 AM — Sep 18 2:50 AM, St. Wendel, Weather by CustomWeather, © 2014

Note: Actual official high and low records may vary slightly from our data, if they occured in-between our weather recording intervals... More about our weather records

Advertising

St. Wendel weather history for previous 24 hours

 ConditionsComfort  
Time TempWeatherWind HumidityBarometerVisibility
2:50 AM
Sep 18
64 °FThunderstorms. Partly cloudy.7 mph78%29.89 "HgN/A
2:20 AM64 °FThundershowers. Partly cloudy.5 mph73%29.86 "HgN/A
1:50 AM64 °FClear.7 mph73%29.86 "Hg10 mi
1:20 AM66 °FClear.8 mph68%29.86 "Hg10 mi
12:50 AM66 °FClear.9 mph68%29.86 "Hg10 mi
12:20 AM66 °FClear.8 mph68%29.86 "Hg10 mi
11:50 PM
Sep 17
66 °FClear.8 mph68%29.86 "Hg10 mi
11:20 PM66 °FClear.8 mph68%29.86 "Hg10 mi
10:50 PM66 °FClear.7 mph68%29.86 "Hg10 mi
10:20 PM66 °FClear.6 mph73%29.86 "Hg10 mi
9:50 PM68 °FClear.9 mph69%29.86 "Hg10 mi
9:20 PM66 °FClear.8 mph73%29.86 "Hg10 mi
8:50 PM68 °FClear.7 mph69%29.86 "Hg10 mi
8:20 PM70 °FSunny.7 mph64%29.86 "Hg10 mi
7:50 PM70 °FSunny.6 mph69%29.86 "Hg10 mi
7:20 PM72 °FSunny.6 mph65%29.86 "Hg10 mi
6:50 PM73 °FSunny.6 mph57%29.86 "Hg10 mi
6:20 PM75 °FSunny.6 mph54%29.86 "Hg10 mi
5:50 PM75 °FSunny.7 mph54%29.86 "Hg10 mi
5:20 PM77 °FPassing clouds.7 mph47%29.86 "HgN/A
4:50 PM77 °FPartly sunny.6 mph51%29.86 "HgN/A
4:20 PM77 °FPartly sunny.6 mph51%29.86 "HgN/A
3:50 PM77 °FPartly sunny.7 mph51%29.86 "HgN/A
3:20 PM77 °FPartly sunny.6 mph51%29.86 "HgN/A
2:50 PM75 °FPartly sunny.7 mph54%29.89 "HgN/A
2:20 PM75 °FPartly sunny.6 mph54%29.89 "HgN/A
1:50 PM73 °FPartly sunny.6 mph61%29.89 "HgN/A
1:20 PM73 °FPassing clouds.7 mph61%29.89 "HgN/A
12:50 PM72 °FPassing clouds.6 mph65%29.89 "HgN/A
12:20 PM70 °FPassing clouds.5 mph64%29.92 "HgN/A
11:50 AM68 °FPassing clouds.6 mph73%29.92 "HgN/A
11:20 AM66 °FPassing clouds.7 mph73%29.92 "HgN/A
10:50 AM64 °FClear.8 mph78%29.92 "Hg5 mi
10:20 AM63 °FClear.7 mph83%29.92 "Hg4 mi
9:50 AM61 °FClear.7 mph88%29.92 "Hg4 mi
9:20 AM59 °FClear.9 mph94%29.92 "Hg4 mi
8:50 AM59 °FClear.10 mph88%29.92 "Hg4 mi
8:20 AM57 °FClear.10 mph94%29.92 "Hg4 mi
7:50 AM57 °FFog.9 mph94%29.92 "Hg3 mi
7:20 AM55 °FFog.9 mph94%29.92 "Hg2 mi
6:50 AM57 °FClear.9 mph94%29.92 "Hg5 mi
6:20 AM57 °FPassing clouds.7 mph94%29.92 "HgN/A
5:50 AM57 °FClear.9 mph88%29.92 "Hg10 mi
5:20 AM57 °FClear.6 mph94%29.92 "Hg10 mi
4:50 AM57 °FClear.8 mph94%29.92 "Hg10 mi
4:20 AM57 °FClear.9 mph94%29.92 "Hg10 mi
Weather by CustomWeather, © 2014

See weather overviewHow to use our weather pages